Presure
156 146 137 155 151 152 167 133 154 134 128 117 134 153 122 110 144 137 80 140 117 102 129 103 96 140 147 125 147 88 104 75 127 139 150 162 144 125 135 123 152 127 135
128 166 149 132 152 153 154 125 146 123 145 145 119 158 122 99 99 86 123 136 133 139 83 87 122 138 119 125 82 135 137 115 132 139 137 115 104 140 122 161 156 146 148
114 179 128 146 158 153 154 153 147 161 135 146 118 130 133 151 127 156 91 131 77 139 134 85 144 130 130 137 132 123 143 132 140 136 131 146 95 101 123 148 119 128 108
104 98 93 136 123 130 155 160 152 143 145 143 145 124 142 133 132 144 111 150 116 151 130 114 82 105 127 141 124 121 128 123 144 140 131 126 136 128 128 131 137 116 113
77 143 146 158 106 98 158 103 130 144 140 136 118 132 146 120 133 144 142 144 109 129 132 135 130 134 141 115 142 137 133 129 143 122 124 132 140 133 139 119 136 142 149
76 80 163 83 129 99 100 165 162 128 117 142 141 136 152 133 98 97 134 102 144 127 108 127 140 141 125 109 146 151 132 140 123 146 143 162 148 151 134 131 139 150 140
144 119 93 99 145 87 152 138 158 141 147 131 126 113 119 114 140 139 140 139 144 97 97 98 100 108 147 137 143 146 148 140 145 146 136 130 130 124 129 131 124 152 146
112 148 148 92 145 136 82 77 74 78 78 79 92 85 94 101 98 102 96 129 101 128 130 142 142 142 112 124 135 134 153 146 142 118 139 140 142 143 143 147 156 134 152
122 154 175 92 94 142 80 92 160 123 76 82 81 79 91 147 109 129 105 110 116 120 102 104 110 116 88 107 83 112 109 134 97 139 140 147 145 138 118 159 150 147 148
146 129 115 169 99 154 163 80 76 146 99 88 130 154 113 119 149 142 91 93 76 152 148 141 117 79 110 125 140 139 99 107 149 148 133 138 126 150 137 159 118 150 149
142 148 132 146 87 78 155 131 152 145 81 134 161 146 78 115 78 123 81 74 125 119 103 113 146 144 153 137 152 134 101 143 120 105 126 121 126 141 117 140 136 123 119
148 164 160 129 135 91 69 156 146 109 109 78 104 139 134 153 95 121 82 108 156 116 128 111 106 104 98 128 107 107 114 132 148 135 138 142 147 128 137 143 112 158 159
149 180 161 160 156 160 82 151 117 90 96 90 107 167 133 173 130 133 170 135 86 82 159 129 94 144 124 136 138 128 127 132 134 125 137 116 131 132 138 143 145 147 152
85 120 137 162 141 73 144 162 78 155 119 104 165 76 80 146 128 131 75 80 70 70 83 151 147 105 105 86 151 149 149 150 140 152 151 164 120 122 148 112 120 125 121
141 136 135 147 148 141 100 107 159 108 138 137 124 114 148 153 146 95 102 155 125 125 137 144 146 136 158 133 152 115 135 143 134 130 90 95 141 145 126 124 138 125 152
149 143 129 158 135 147 152 143 142 147 145 167 135 149 162 148 152 135 147 136 150 118 118 151 164 149 141 158 158 116 160 151 133 143 145 142 161 164 158 152 150 149 128
130 168 152 134 183 148 188 144 177 145 147 189 152 150 163 144 166 167 162 145 167 116 125 138 157 145 178 170 154 134 161 143 150 117 157 147 149 154 136 142 159 132 76
169 172 144 178 180 198 200 182 179 154 190 194 192 151 150 149 151 165 168 158 157 162 158 168 148 165 123 160 138 169 155 162 151 125 122 128 160 169 131 146 136 142 118
164 174 182 174 168 167 165 176 183 195 203 175 183 185 172 196 174 150 159 149 151 166 150 152 161 139 149 136 166 99 128 155 159 116 157 146 147 161 148 159 160 126 112
163 156 152 153 181 163 152 151 162 161 142 160 209 235 252 196 175 179 184 194 183 163 158 148 155 161 165 146 174 157 168 155 162 145 133 161 161 129 132 145 153 164 152
164 176 175 169 169 176 178 180 173 178 185 190 195 214 201 217 228 237 190 176 183 181 192 187 201 203 169 169 163 156 178 168 145 152 144 148 143 141 144 157 166 144 152
170 169 170 170 167 170 171 174 171 177 193 199 199 204 210 208 202 211 213 203 182 226 220 180 182 178 183 212 204 164 167 166 165 165 159 166 167 158 160 161 148 164 150
170 165 165 168 168 171 168 171 173 176 179 179 193 192 195 199 201 198 199 199 199 206 213 216 221 225 189 182 173 185 185 189 196 202 198 166 167 173 163 156 155 154 160
162 163 162 166 164 164 166 164 163 163 170 183 182 189 187 185 189 192 193 193 197 197 200 201 204 205 211 214 222 207 210 169 207 168 200 185 161 208 201 172 160 219 199
157 155 164 154 156 157 158 158 161 168 169 177 181 180 186 184 184 186 188 188 191 188 189 195 196 200 194 200 201 206 214 209 212 213 211 214 214 176 194 202 189 193 206
166 157 159 156 153 154 160 162 167 166 165 172 170 177 174 182 186 182 184 188 185 195 192 192 190 192 207 207 201 205 191 200 210 205 203 205 199 195 198 203 195 191 186
Wind_Speed
38 31 30 38 36 38 44 30 43 30 28 23 32 43 21 13 38 35 9 33 17 10 22 13 9 27 27 18 23 11 6 14 16 24 29 24 20 16 19 18 17 17 17
27 48 36 25 39 41 41 28 42 22 43 43 19 38 23 10 13 8 23 31 25 30 12 11 16 30 12 17 11 26 28 15 21 22 21 18 20 20 19 21 18 17 19
20 32 28 38 46 41 42 44 40 42 34 46 21 29 29 42 24 37 12 29 8 33 31 11 31 21 23 33 26 20 31 22 26 24 20 26 19 20 21 23 21 21 21
10 13 12 35 31 31 46 48 41 41 42 44 44 26 40 31 29 40 20 43 24 36 27 22 14 17 22 33 22 18 30 19 29 27 25 23 25 20 21 24 23 25 25
11 29 33 40 21 17 48 18 32 45 41 38 29 35 36 28 35 39 39 38 22 30 32 30 26 29 34 23 37 34 27 27 31 24 24 28 28 25 30 26 27 27 26
12 13 39 13 32 19 20 53 50 32 29 45 45 38 48 35 16 17 38 21 43 31 23 30 37 36 26 23 39 39 28 36 26 37 31 31 34 33 31 28 31 36 30
35 32 26 20 41 17 48 42 52 44 52 40 37 31 30 29 38 40 40 38 44 19 20 21 24 26 44 37 39 43 42 39 42 43 31 31 31 29 32 31 30 37 39
37 36 39 28 41 38 17 15 12 14 14 14 19 13 20 24 21 25 22 36 25 37 35 44 44 43 27 35 37 36 44 43 43 31 36 38 40 38 41 41 42 36 39
38 38 37 30 33 41 19 22 54 36 17 19 18 17 23 53 31 41 33 35 37 39 30 31 35 36 22 30 21 34 31 38 27 45 44 48 46 41 34 44 44 45 45
43 48 48 42 39 49 54 24 22 50 31 26 42 57 42 41 55 51 26 29 21 57 53 50 40 24 37 43 49 49 32 35 50 52 45 44 40 51 44 50 36 44 48
45 42 38 45 33 26 50 46 51 49 27 45 61 53 24 39 25 46 25 26 48 43 34 39 55 53 58 48 57 47 37 53 43 38 46 45 47 53 45 50 48 43 40
46 46 47 49 49 41 28 52 51 41 39 30 39 49 48 60 37 46 31 42 61 48 50 40 39 42 38 50 42 40 43 48 57 51 53 56 57 46 54 55 43 52 49
49 50 51 52 52 52 40 52 48 42 44 41 47 61 53 63 49 51 60 51 38 36 64 52 40 55 49 52 54 53 53 53 54 49 57 47 52 52 56 58 59 55 53
45 50 50 56 52 43 55 58 36 57 57 53 58 39 40 60 54 55 38 39 36 37 42 62 58 46 44 44 65 64 64 66 64 70 67 68 50 53 65 51 54 54 54
54 53 53 55 56 59 51 53 61 53 58 62 56 55 64 66 65 52 51 65 58 57 59 61 61 57 67 55 64 57 58 61 60 59 45 51 66 66 58 57 63 58 65
62 62 63 62 56 62 63 60 59 61 60 67 63 68 67 68 67 63 67 63 69 61 60 72 75 66 68 71 71 59 71 68 61 63 66 67 73 72 71 72 71 70 63
58 56 62 59 55 65 57 65 61 68 65 65 70 68 74 72 75 74 77 69 81 65 64 66 78 71 76 80 75 65 81 68 74 64 77 68 72 77 68 70 76 68 42
59 58 62 56 56 49 51 58 61 71 61 63 67 74 71 72 72 78 80 81 79 83 82 80 76 81 69 79 69 80 73 74 78 68 68 67 79 78 70 74 73 75 70
60 56 52 55 57 58 59 57 56 54 52 65 67 68 74 70 78 78 80 76 78 86 79 80 86 78 83 74 85 61 69 78 79 72 77 78 76 80 75 79 80 74 74
60 62 64 64 53 60 66 67 63 64 67 63 50 41 38 68 74 76 79 80 87 88 85 77 86 91 92 81 89 84 85 82 83 80 75 84 85 79 74 74 79 80 76
61 54 53 60 60 55 54 54 56 54 51 51 51 47 56 46 43 44 70 80 81 84 83 85 87 88 96 98 96 88 92 91 79 85 82 82 79 79 82 85 88 78 83
58 56 56 57 59 57 58 55 57 53 48 47 48 47 46 49 56 50 52 62 67 56 60 82 86 89 89 87 94 95 96 98 98 97 92 95 94 90 90 92 84 94 84
53 56 57 57 58 57 58 59 57 55 55 55 51 51 50 50 52 56 58 59 62 59 58 59 61 63 80 91 91 90 94 95 95 88 100 97 93 100 97 94 92 94 101
57 57 58 56 59 60 61 63 62 61 61 57 56 53 54 55 56 56 58 60 61 62 62 64 63 65 65 67 68 76 78 90 84 91 91 96 91 89 93 103 97 86 100
62 63 57 64 63 63 65 66 67 65 64 61 58 59 57 59 60 59 59 61 62 67 67 65 65 66 70 70 70 70 71 74 75 76 79 78 78 89 85 85 91 87 80
58 64 63 65 67 68 65 67 68 69 68 65 66 64 66 64 64 65 65 63 63 62 66 69 69 69 69 69 71 71 73 72 73 76 78 78 80 83 82 75 81 82 85
Wind_Direction
202 206 209 208 210 210 209 219 202 217 221 210 200 195 254 214 209 219 20 217 250 267 238 283 280 246 247 271 267 347 320 32 294 298 311 317 317 303 310 310 326 324 322
212 208 211 216 213 215 214 224 209 235 210 208 241 207 249 260 238 301 238 233 243 227 333 315 280 253 279 266 9 274 278 279 292 295 296 289 313 315 310 332 319 323 327
215 203 214 215 217 217 216 216 218 221 227 212 240 239 235 206 254 213 269 242 338 241 249 322 251 267 272 269 273 286 271 293 291 294 295 303 328 320 293 314 302 304 313
207 230 238 216 216 223 218 219 219 220 216 221 215 247 227 237 241 222 259 223 250 228 258 264 313 293 270 267 279 281 284 281 283 291 295 292 304 285 291 299 302 300 302
188 208 218 214 230 230 221 248 228 222 229 232 237 243 228 246 246 231 233 234 260 265 263 259 275 266 259 283 266 286 288 282 289 283 286 291 289 294 301 297 300 302 306
206 214 210 224 217 219 252 225 225 237 234 231 230 242 231 249 265 274 238 273 235 266 274 266 260 262 282 282 267 272 285 283 282 290 287 293 290 292 293 292 304 303 302
224 233 250 224 221 227 222 229 226 231 229 239 241 245 243 249 242 250 243 247 242 288 291 293 289 279 259 274 270 272 276 282 284 286 288 289 290 288 291 294 289 297 300
246 232 223 248 224 233 232 239 259 246 246 247 248 263 265 267 269 268 274 259 279 256 265 255 259 261 282 274 280 282 274 277 282 286 285 287 293 293 292 293 294 296 288
235 231 220 248 251 233 245 244 230 242 263 255 254 257 258 240 253 253 268 268 263 263 282 280 278 275 283 281 285 288 292 283 298 286 286 289 289 289 290 292 294 295 297
229 235 241 227 252 237 231 253 258 237 255 262 248 239 256 256 244 252 263 267 277 247 252 260 270 283 282 274 274 278 287 289 275 277 280 291 286 292 290 292 289 292 294
235 239 241 236 253 252 238 249 247 245 261 248 242 250 259 257 261 256 261 265 262 268 275 274 259 263 263 268 266 273 279 277 283 282 283 283 285 289 294 292 292 294 290
242 241 241 239 241 253 255 245 245 248 251 259 256 252 251 253 262 257 263 260 256 266 262 267 274 285 284 271 281 280 280 277 272 281 284 283 281 284 286 285 285 282 282
244 252 241 243 245 244 256 247 251 256 258 259 261 251 253 251 257 257 254 260 266 266 260 262 266 264 271 268 270 273 275 276 276 280 279 284 285 285 286 286 287 285 283
247 244 248 250 249 256 249 246 265 249 255 265 250 265 266 258 258 256 267 266 273 275 268 266 267 279 278 272 268 268 269 270 274 273 275 274 283 285 282 287 287 287 289
252 254 254 254 253 249 255 256 249 257 257 256 261 262 258 258 259 267 264 260 265 264 265 266 267 267 267 268 267 277 272 269 274 278 288 283 278 280 282 283 283 286 285
249 254 249 253 261 259 255 260 259 258 257 253 257 259 255 256 260 264 261 266 265 265 270 266 263 266 269 265 266 275 270 272 273 271 274 277 272 271 274 280 281 283 286
256 256 255 258 261 255 260 260 261 261 261 260 261 262 258 256 254 253 254 270 259 267 263 269 266 269 262 262 269 270 268 271 272 276 275 275 276 276 279 280 274 283 287
255 257 258 260 260 257 257 262 262 257 261 260 258 261 264 263 263 257 254 260 262 260 264 262 269 266 268 267 270 267 267 268 271 272 274 275 273 270 276 278 278 277 285
255 257 259 258 258 259 260 260 261 258 262 261 261 261 259 259 261 264 263 265 265 263 263 266 266 268 269 271 266 277 271 270 271 276 271 274 274 272 274 273 275 275 287
257 257 258 259 261 260 262 262 264 264 262 263 266 274 279 260 259 261 259 261 261 264 265 267 269 268 269 269 266 267 265 271 269 272 272 270 272 273 271 276 277 274 278
257 257 259 260 262 264 267 266 263 267 268 268 269 266 263 267 276 279 263 260 261 260 262 264 262 262 267 267 267 269 265 268 269 272 269 271 272 272 275 276 275 276 278
255 258 261 262 262 266 267 269 265 270 279 279 274 275 275 269 264 268 269 267 267 273 271 264 265 264 267 265 263 268 269 269 270 269 270 269 270 274 273 274 277 276 278
258 259 260 265 266 270 269 272 273 277 277 275 281 278 278 278 277 270 268 267 266 269 273 273 272 272 268 266 266 267 266 267 267 269 266 268 271 270 272 276 278 280 279
258 259 261 265 267 269 271 271 267 270 275 281 280 282 279 276 276 276 275 275 276 271 271 270 270 270 271 271 271 269 269 270 269 270 268 266 271 271 270 271 274 274 271
257 257 262 260 263 267 268 269 270 276 277 281 283 280 282 279 278 276 275 276 276 275 272 273 271 271 268 270 269 270 269 268 269 268 269 269 270 272 272 272 272 273 275
256 258 260 262 262 264 269 272 275 275 276 278 279 280 277 279 279 276 276 276 274 277 276 276 276 275 278 275 270 270 268 268 268 267 269 269 270 271 272 272 273 274 275